"Pseudo-MPEC" for C1HLX22

Created 2019 Dec 4 2:07:17 UT using Find_Orb

Click here for an explanation of pseudo-MPECs

 
 Astrometry: 
     C1HLX22  C2019 12 02.38857 07 38 40.82 +30 17 29.4    ~C2AM 21.2 GVNEOCPG96
     C1HLX22  C2019 12 02.39898 07 38 56.00 +30 17 34.1    ~C2AM 21.2 GVNEOCPG96
     C1HLX22  C2019 12 02.40418 07 39 03.57 +30 17 36.7    ~C2AM 21.1 GVNEOCPG96
     C1HLX22  C2019 12 02.50539 07 41 27.36 +30 17 33.0    ~C2Cb 21.1 GVNEOCPI52
     C1HLX22  C2019 12 02.50684 07 41 29.44 +30 17 31.8    ~C2Cb 20.5 GVNEOCPI52
     C1HLX22  C2019 12 02.50830 07 41 31.49 +30 17 30.8    ~C2Cb 20.5 GVNEOCPI52
     C1HLX22  C2019 12 02.50976 07 41 33.54 +30 17 30.3    ~C2Cb 21.1 GVNEOCPI52
     C1HLX22  C2019 12 03.33804 08 00 25.43 +30 13 12.9    ~C38q 21.9 GVNEOCPI52
     C1HLX22  C2019 12 03.34137 08 00 28.70 +30 13 13.0    ~C38q 22.4 GVNEOCPI52
     C1HLX22  C2019 12 03.34470 08 00 31.93 +30 13 13.5    ~C38q       VNEOCPI52
     C1HLX22  C2019 12 03n^Astrometrydo*^-l[!VCgredacted;37Z%x8w5click\uCu,TgF51
     C1HLX22  C2019 12 03JHKiqUM$!.ZW+GDw[$uxL3xG9vwyP#RilJherex@(T(b1hd0eE4:F51
     C1HLX22  C2019 12 03CPf0(g#X.\;%re$lmXO0forC=tS(?Av=KbM.)QfHexplanation-F51

Station data:
(F51) Pan-STARRS 1, Haleakala  (N20.707235 W156.255910)  US/Hawaii.
   Observers N. Primak, A. Schultz, S. Watters, J. Thiel, T. Goggia. Measurer
   PS1 Science Consortium. 1.8-m Ritchey-Chrétien + CCD.
(G96) Mt. Lemmon Survey  (N32.442754 W110.788720)  US/Arizona.  Observers T.
   A. Pruyne, B. M. Africano, E. J. Christensen, G. A. Farneth, D. C. Fuls,
   A. R. Gibbs, A. D. Grauer, H. Gröller, J. A. Johnson, R. A. Kowalski, S.
   M. Larson, G. J. Leonard, D. Rankin, R. L. Seaman, F. C. Shelly. 1.5-m
   reflector + 10K CCD.
(I52) Steward Observatory, Mt. Lemmon Station  (N32.442547 W110.788920)
   US/Arizona.  Observers T. A. Pruyne, B. M. Africano, E. J. Christensen, G.
   A. Farneth, D. C. Fuls, A. R. Gibbs, A. D. Grauer, H. Gröller, J. A.
   Johnson, R. A. Kowalski, S. M. Larson, G. J. Leonard, D. Rankin, R. L.
   Seaman, F. C. Shelly. 1.0-m reflector + CCD.

Orbital elements:  C1HLX22
   Perihelion 2019 Nov 22.705578 +/- 0.0117 TT = 16:56:02 (JD 2458810.205578)
Epoch 2019 Dec  3.0 TT = JDT 2458820.5   Earth MOID: 0.0071   Ma: 0.0205
M   2.70939989 +/- 0.014            (J2000 ecliptic)          AutoNEOCP
n   0.26319106 +/- 0.00139          Peri.  351.75540 +/- 0.019
a   2.41150749 +/- 0.00851          Node    66.53615 +/- 0.0031
e   0.5883243 +/- 0.00145           Incl.    2.56848 +/- 0.0046
P   3.74                   H 28.2   G  0.15   U  8.3  
q 0.99275887 +/- 4.07e-5    Q 3.83025612 +/- 0.0171
From 13 observations 2019 Dec. 2-3 (26.9 hr); mean residual 0".62
Residuals in arcseconds: 
191202 G96  .48-  .01-    191202 I52  .29+  .38-    191203 F51  .13+  .44+    
191202 G96  .14-  .14-    191202 I52  .25+  .21-    191203 F51  .38+  .40+    
191202 G96  .28+  .38+    191203 I52  1.5+  .82-    191203 F51  .06-  .41+    
191202 I52  .21-  .53+    191203 I52  .13-  .81-    
191202 I52  .32+  .04-    191203 I52  2.1-  .34-    

Ephemerides (geocentric):
Date (UTC) HH   RA              Dec         delta   r     elong  mag " sig PA
---- -- -- --  -------------   -----------  ------ ------ -----  --- ---- ---
2019 12 04 02  08 12 40.468   +30 05 38.96  .02730 1.0041 131.8 22.1 2.02  91
2019 12 04 03  08 13 17.135   +30 05 07.61  .02748 1.0042 131.7 22.2 2.14  91
2019 12 04 04  08 13 53.313   +30 04 36.05  .02765 1.0043 131.7 22.2 2.26  91
2019 12 04 05  08 14 29.012   +30 04 04.29  .02783 1.0043 131.6 22.2 2.39  91
2019 12 04 06  08 15 04.241   +30 03 32.34  .02801 1.0044 131.5 22.2 2.51  92
2019 12 04 07  08 15 39.006   +30 03 00.24  .02819 1.0045 131.4 22.2 2.64  92
2019 12 04 08  08 16 13.318   +30 02 27.98  .02836 1.0046 131.3 22.2 2.77  92
2019 12 04 09  08 16 47.184   +30 01 55.59  .02854 1.0047 131.2 22.2 2.89  92
2019 12 04 10  08 17 20.612   +30 01 23.08  .02872 1.0048 131.2 22.3 3.02  92
2019 12 04 11  08 17 53.610   +30 00 50.46  .02890 1.0048 131.1 22.3 3.15  92
2019 12 04 12  08 18 26.186   +30 00 17.74  .02908 1.0049 131.0 22.3 3.29  92
2019 12 04 13  08 18 58.346   +29 59 44.94  .02926 1.0050 130.9 22.3 3.42  92
2019 12 04 14  08 19 30.098   +29 59 12.07  .02944 1.0051 130.8 22.3 3.55  92
2019 12 04 15  08 20 01.449   +29 58 39.13  .02962 1.0052 130.8 22.3 3.68  93
2019 12 04 16  08 20 32.407   +29 58 06.15  .02979 1.0053 130.7 22.4 3.82  93
2019 12 04 17  08 21 02.978   +29 57 33.12  .02997 1.0054 130.6 22.4 3.95  93
2019 12 04 18  08 21 33.168   +29 57 00.06  .03015 1.0054 130.6 22.4 4.08  93
2019 12 04 19  08 22 02.984   +29 56 26.99  .03033 1.0055 130.5 22.4 4.22  93
2019 12 04 20  08 22 32.432   +29 55 53.89  .03051 1.0056 130.4 22.4 4.36  93
2019 12 04 21  08 23 01.519   +29 55 20.80  .03069 1.0057 130.4 22.4 4.49  93
2019 12 04 22  08 23 30.251   +29 54 47.71  .03087 1.0058 130.3 22.4 4.63  93
2019 12 04 23  08 23 58.634   +29 54 14.62  .03105 1.0059 130.2 22.5 4.76  93
2019 12 05 00  08 24 26.673   +29 53 41.56  .03123 1.0060 130.2 22.5 4.90  93
2019 12 05 01  08 24 54.374   +29 53 08.52  .03141 1.0061 130.1 22.5 5.04  93
2019 12 05 02  08 25 21.743   +29 52 35.52  .03159 1.0061 130.1 22.5 5.17  93
2019 12 05 03  08 25 48.786   +29 52 02.55  .03177 1.0062 130.0 22.5 5.31  94
2019 12 05 04  08 26 15.507   +29 51 29.62  .03195 1.0063 130.0 22.5 5.44  94
2019 12 05 05  08 26 41.911   +29 50 56.75  .03213 1.0064 129.9 22.5 5.58  94
2019 12 05 06  08 27 08.005   +29 50 23.93  .03231 1.0065 129.8 22.6 5.72  94
2019 12 05 07  08 27 33.793   +29 49 51.18  .03249 1.0066 129.8 22.6 5.85  94
2019 12 05 08  08 27 59.279   +29 49 18.48  .03268 1.0067 129.7 22.6 5.99  94
2019 12 05 09  08 28 24.470   +29 48 45.86  .03286 1.0068 129.7 22.6 6.13  94
2019 12 05 10  08 28 49.368   +29 48 13.32  .03304 1.0069 129.6 22.6 6.26  94
2019 12 05 11  08 29 13.980   +29 47 40.85  .03322 1.0070 129.6 22.6 6.40  94
2019 12 05 12  08 29 38.309   +29 47 08.47  .03340 1.0071 129.5 22.6 6.53  94
2019 12 05 13  08 30 02.361   +29 46 36.17  .03358 1.0071 129.5 22.6 6.67  94
2019 12 05 14  08 30 26.139   +29 46 03.96  .03376 1.0072 129.5 22.7 6.81  94
2019 12 05 15  08 30 49.647   +29 45 31.85  .03394 1.0073 129.4 22.7 6.94  94
2019 12 05 16  08 31 12.890   +29 44 59.84  .03412 1.0074 129.4 22.7 7.08  94
2019 12 05 17  08 31 35.872   +29 44 27.93  .03431 1.0075 129.3 22.7 7.21  94
2019 12 05 18  08 31 58.597   +29 43 56.12  .03449 1.0076 129.3 22.7 7.34  95
2019 12 05 19  08 32 21.069   +29 43 24.42  .03467 1.0077 129.2 22.7 7.48  95
2019 12 05 20  08 32 43.291   +29 42 52.83  .03485 1.0078 129.2 22.7 7.61  95
2019 12 05 21  08 33 05.268   +29 42 21.35  .03503 1.0079 129.2 22.7 7.75  95
2019 12 05 22  08 33 27.003   +29 41 49.99  .03522 1.0080 129.1 22.8 7.88  95
2019 12 05 23  08 33 48.499   +29 41 18.74  .03540 1.0081 129.1 22.8 8.01  95
2019 12 06 00  08 34 09.761   +29 40 47.61  .03558 1.0082 129.1 22.8 8.14  95
2019 12 06 01  08 34 30.792   +29 40 16.60  .03576 1.0083 129.0 22.8 8.28  95